Location: Brahman Valley
(40.6513°N, 111.8855°W)
Time: 21:23:54
(UTC+00:00)

Vanguard 2 - Pass Details

Date: 14 May 2021
Orbit: 552 x 2937 km, 32.9° (Epoch: 14 June)

Event Time Altitude Azimuth Distance (km) Brightness Sun altitude
Rises 18:41:04 0° 278° (W) 6,098 12.0 66.3°
Reaches altitude 10° 18:45:21 10° 270° (W) 5,337 11.8 66.7°
Maximum altitude 18:59:11 34° 214° (SW) 4,107 12.0 67.5°
Drops below altitude 10° 19:13:37 10° 158° (SSE) 5,525 12.4 68.1°
Sets 19:18:14 0° 150° (SSE) 6,325 12.5 68.1°
